Epoch 2015 Feb. 27.0 TT = JDT 2457080.5 T 2015 Feb. 19.74906 TT MPCW q 0.0284670 (2000.0) P Q z -0.0402341 Peri. 235.22423 +0.34597765 +0.11471115 +/-0.0040624 Node 95.91836 -0.18731614 +0.98096205 e 1.0011453 Incl. 69.42191 -0.91935419 -0.15669971 From 410 observations 2015 Feb. 18-21.
m1 = 17 + 5 log d + 10 log r [ , 0] ( - 2015 Feb. 19) m1 = 11 + 5 log d + 7 log r [ 0,30] (2015 Feb. 19 - 2015 Mar. 21) m1 = 11 + 5 log d + 10 log r [30, ] (2015 Mar. 21 - )